False Pass, AK

9:44 PM HDT on May 28, 2017 (GMT -0900)
False Pass

Weather History for PAKF - February, 2013

Change the Weather History Date:

Sunday, February 24, 2013

  Actual Average (PACD) Record (PACD)
Temperature  
Mean Temperature 26 °F -  
Max Temperature 32 °F 33 °F 47 °F (1997)
Min Temperature 21 °F 23 °F 2 °F (1974)
Degree Days  
Heating Degree Days 38    
Moisture  
Dew Point 21 °F    
Average Humidity 82    
Maximum Humidity 100    
Minimum Humidity 69    
Precipitation  
Precipitation 0.00 in - - ()
Sea Level Pressure  
Sea Level Pressure 29.58 in    
Wind  
Wind Speed 24 mph (WNW)    
Max Wind Speed 43 mph    
Max Gust Speed 55 mph    
Visibility 3 miles    
Events Fog , Snow    
Averages and records for this station are not official NWS values.
T = Trace of Precipitation, MM = Missing Value Source: NWS Daily Summary

Daily Weather History Graph

Daily Weather History Graph

Search for Another Location

Airport or City:

Trip Planner

Search our weather history database for the weather conditions in past years. The results will help you decide how hot, cold, wet, or windy it might be!

Date:

Astronomy

Feb. 24, 2013 Rise Set
Actual Time 7:53 AM HST 6:20 PM HST
Civil Twilight 7:17 AM HST 6:57 PM HST
Nautical Twilight 6:35 AM HST 7:38 PM HST
Astronomical Twilight 5:53 AM HST 8:20 PM HST
Moon 5:46 PM HST (2/24) 7:00 AM HST (2/24)
Length of Visible Light 11h 39m
Length of Day
10h 26m
Waxing Gibbous, 99% of the Moon is Illuminated
Feb 24
Waxing Gibbous
Feb 25
Full
Mar 4
Last Quarter
Mar 11
New
Mar 19
First Quarter

Hourly Weather History & Observations

Time (HST) Temp. Windchill Dew Point Humidity Pressure Visibility Wind Dir Wind Speed Gust Speed Precip Events Conditions
12:01 AM 32.0 °F 15.4 °F 26.6 °F 80% 29.25 in 1.2 mi West 42.6 mph 54.1 mph 0.01 in Snow Light Snow
12:16 AM 32.0 °F 17.0 °F 26.6 °F 80% 29.27 in 1.0 mi WSW 33.4 mph 48.3 mph 0.01 in Snow Light Snow
12:27 AM 32.0 °F 17.0 °F 26.6 °F 80% 29.28 in 1.5 mi WSW 33.4 mph 48.3 mph 0.01 in Snow Light Snow
12:38 AM 32.0 °F 16.0 °F 26.1 °F 79% 29.57 in 1.5 mi WSW 39.1 mph 51.8 mph 0.01 in Snow Light Snow
12:41 AM 32.0 °F 16.0 °F 24.8 °F 75% 29.29 in 2.0 mi WSW 39.1 mph 55.2 mph 0.00 in Snow Light Snow
12:46 AM 32.0 °F 16.5 °F 24.8 °F 75% 29.30 in 3.0 mi West 35.7 mph 55.2 mph 0.00 in Snow Light Snow
12:50 AM 32.0 °F 17.4 °F 24.8 °F 75% 29.31 in 2.5 mi West 31.1 mph 49.5 mph 0.00 in Snow Light Snow
12:57 AM 32.0 °F 18.1 °F 24.8 °F 75% 29.32 in 3.0 mi West 27.6 mph 50.6 mph 0.00 in   Overcast
1:01 AM 32.0 °F 17.0 °F 24.8 °F 75% 29.31 in 3.0 mi WSW 33.4 mph 48.3 mph 0.00 in   Overcast
1:08 AM 32.0 °F 17.9 °F 24.8 °F 75% 29.33 in 4.0 mi West 28.8 mph 48.3 mph 0.00 in   Overcast
1:24 AM 30.9 °F 16.2 °F 25.0 °F 79% 29.61 in 3.0 mi West 29.9 mph 42.6 mph 0.00 in   Overcast
1:59 AM 30.9 °F 16.9 °F 25.0 °F 79% 29.65 in 1.8 mi West 26.5 mph 48.3 mph 0.00 in Snow Light Snow
2:30 AM 30.2 °F 17.8 °F 24.8 °F 80% 29.42 in 3.0 mi WSW 19.6 mph 32.2 mph 0.00 in Snow Light Snow
3:01 AM 30.9 °F 24.3 °F 23.0 °F 72% 29.73 in 5.0 mi Variable 6.9 mph 23.0 mph 0.00 in Snow Light Snow
4:01 AM 28.4 °F 19.1 °F 23.0 °F 80% 29.48 in 2.5 mi NW 10.4 mph 20.7 mph 0.00 in Snow Light Snow
4:08 AM 28.4 °F 19.1 °F 23.0 °F 80% 29.48 in 4.0 mi West 10.4 mph 18.4 mph 0.00 in Snow Light Snow
4:21 AM 28.4 °F 15.4 °F 23.0 °F 80% 29.49 in 2.5 mi West 19.6 mph 31.1 mph 0.00 in Snow Light Snow
4:36 AM 28.4 °F 17.0 °F 23.0 °F 80% 29.51 in 1.5 mi WNW 15.0 mph 29.9 mph 0.00 in Snow Light Snow
4:53 AM 28.4 °F 16.2 °F 23.0 °F 80% 29.51 in 2.5 mi WSW 17.3 mph 39.1 mph 0.00 in Snow Light Snow
5:01 AM 28.0 °F 16.1 °F 21.9 °F 78% 29.81 in 2.0 mi West 16.1 mph 29.9 mph 0.00 in Snow Light Snow
6:01 AM 26.6 °F 13.4 °F 19.4 °F 74% 29.56 in 3.0 mi WSW 18.4 mph 35.7 mph 0.00 in Snow Light Snow
6:46 AM 27.0 °F 14.3 °F 19.9 °F 75% 29.86 in 4.0 mi WSW 17.3 mph 38.0 mph 0.00 in Snow Light Snow
7:01 AM 26.1 °F 10.4 °F 19.9 °F 78% 29.85 in 4.0 mi WSW 26.5 mph 33.4 mph 0.00 in Snow Light Snow
7:24 AM 26.6 °F 13.4 °F 19.4 °F 74% 29.59 in 8.0 mi WSW 18.4 mph 26.5 mph 0.00 in Snow Light Snow
7:50 AM 26.6 °F 12.7 °F 19.4 °F 74% 29.60 in 7.0 mi WSW 20.7 mph 31.1 mph 0.00 in   Mostly Cloudy
7:57 AM 26.6 °F 12.4 °F 17.6 °F 69% 29.60 in 9.0 mi WSW 21.9 mph 28.8 mph 0.00 in   Mostly Cloudy
8:01 AM 26.6 °F 12.4 °F 17.6 °F 69% 29.60 in 10.0 mi West 21.9 mph 32.2 mph 0.00 in   Mostly Cloudy
8:17 AM 26.6 °F 14.3 °F 17.6 °F 69% 29.61 in 8.0 mi WSW 16.1 mph 27.6 mph 0.00 in Snow Light Snow
9:01 AM 26.6 °F 15.2 °F 19.4 °F 74% 29.62 in 6.0 mi West 13.8 mph 21.9 mph 0.00 in   Mostly Cloudy
9:18 AM 24.8 °F 16.1 °F 21.2 °F 86% 29.63 in 1.2 mi NW 8.1 mph - 0.00 in Snow Light Snow
9:33 AM 26.6 °F 19.1 °F 19.4 °F 74% 29.65 in 5.0 mi Variable 6.9 mph - 0.00 in Snow Light Snow
9:41 AM 26.6 °F 16.2 °F 19.4 °F 74% 29.65 in 5.0 mi West 11.5 mph - 0.00 in Snow Light Snow
10:01 AM 24.8 °F 14.6 °F 19.4 °F 80% 29.66 in 2.5 mi West 10.4 mph 18.4 mph 0.00 in Snow Light Snow
10:14 AM 24.8 °F 15.3 °F 19.4 °F 80% 29.66 in 2.0 mi West 9.2 mph - 0.00 in Snow Light Snow
10:44 AM 26.6 °F 18.2 °F 19.4 °F 74% 29.67 in 2.0 mi NW 8.1 mph - 0.00 in Snow Light Snow
10:52 AM 26.6 °F 18.2 °F 21.2 °F 80% 29.67 in 1.5 mi WNW 8.1 mph - 0.00 in Snow Light Snow
11:01 AM 26.6 °F 17.5 °F 21.2 °F 80% 29.66 in 1.2 mi WNW 9.2 mph - N/A Snow Light Snow
11:49 AM 24.8 °F 14.6 °F 19.4 °F 80% 29.67 in 2.5 mi NW 10.4 mph - 0.00 in Snow Light Snow
12:01 PM 24.8 °F 15.3 °F 19.4 °F 80% 29.68 in 4.0 mi NW 9.2 mph - 0.00 in Snow Light Snow
12:20 PM 24.8 °F 15.3 °F 19.4 °F 80% 29.67 in 6.0 mi NW 9.2 mph - 0.00 in Snow Light Snow
1:01 PM 24.8 °F 16.1 °F 21.2 °F 86% 29.66 in 2.0 mi NW 8.1 mph - 0.00 in Snow Light Snow
1:11 PM 24.8 °F 16.1 °F 21.2 °F 86% 29.65 in 1.8 mi NNW 8.1 mph - 0.00 in Snow Light Snow
1:22 PM 24.8 °F 13.4 °F 21.2 °F 86% 29.65 in 1.5 mi NNW 12.7 mph - 0.00 in Snow Light Snow
1:32 PM 24.8 °F 14.0 °F 21.2 °F 86% 29.65 in 0.8 mi NNW 11.5 mph - 0.00 in Snow Light Snow
1:39 PM 24.8 °F 15.3 °F 21.2 °F 86% 29.65 in 0.8 mi NW 9.2 mph - 0.00 in Snow Light Snow
2:01 PM 24.8 °F 14.6 °F 21.2 °F 86% 29.63 in 1.0 mi NW 10.4 mph - 0.00 in Snow Light Snow
2:20 PM 24.8 °F 14.6 °F 21.2 °F 86% 29.62 in 1.5 mi NW 10.4 mph - 0.00 in Snow Light Snow
2:53 PM 24.8 °F 15.3 °F 21.2 °F 86% 29.60 in 2.0 mi NW 9.2 mph - 0.00 in Snow Light Snow
3:01 PM 25.0 °F 14.2 °F 21.0 °F 85% 29.88 in 2.0 mi NW 11.5 mph - 0.00 in Snow Light Snow
3:23 PM 24.8 °F 14.6 °F 19.4 °F 80% 29.60 in 7.0 mi NW 10.4 mph - 0.00 in Snow Light Snow
4:01 PM 25.0 °F 13.6 °F 19.9 °F 81% 29.87 in 9.0 mi NW 12.7 mph - 0.00 in Snow Light Snow
5:01 PM 24.1 °F 10.6 °F 19.9 °F 84% 29.84 in 10.0 mi NNW 17.3 mph 20.7 mph 0.00 in   Overcast
6:01 PM 24.1 °F 9.8 °F 19.9 °F 84% 29.81 in 10.0 mi NNW 19.6 mph - 0.00 in   Overcast
6:47 PM 24.8 °F 10.3 °F 19.4 °F 80% 29.52 in 1.8 mi NNW 20.7 mph 27.6 mph 0.00 in Snow Light Snow
7:01 PM 24.1 °F 10.6 °F 19.9 °F 84% 29.81 in 1.2 mi NNW 17.3 mph 27.6 mph 0.00 in Snow Light Snow
7:10 PM 24.8 °F 10.0 °F 21.2 °F 86% 29.52 in 1.0 mi NNW 21.9 mph 26.5 mph 0.00 in Snow Light Snow
7:21 PM 23.0 °F 8.0 °F 21.2 °F 93% 29.52 in 1.2 mi NNW 20.7 mph 26.5 mph 0.00 in Snow Light Snow
7:32 PM 23.0 °F 8.0 °F 21.2 °F 93% 29.51 in 1.0 mi NNW 20.7 mph 25.3 mph 0.00 in Snow Light Snow
7:42 PM 23.0 °F 7.6 °F 19.4 °F 86% 29.51 in 1.2 mi NNW 21.9 mph 29.9 mph 0.00 in Snow Light Snow
7:56 PM 23.0 °F 7.6 °F 21.2 °F 93% 29.51 in 1.0 mi NNW 21.9 mph 31.1 mph 0.00 in Snow Light Snow
8:01 PM 23.0 °F 7.2 °F 21.0 °F 92% 29.79 in 1.0 mi NNW 23.0 mph 31.1 mph 0.00 in Snow Light Snow
8:10 PM 23.0 °F 8.0 °F 21.2 °F 93% 29.50 in 0.8 mi NW 20.7 mph 29.9 mph 0.00 in Snow Light Snow
8:26 PM 23.0 °F 8.3 °F 21.2 °F 93% 29.49 in 0.5 mi NW 19.6 mph 29.9 mph 0.00 in Fog , Snow Snow
8:57 PM 21.2 °F 4.9 °F 21.2 °F 100% 29.48 in 0.8 mi NW 23.0 mph 27.6 mph 0.00 in Snow Light Snow
8:58 PM 21.9 °F 5.8 °F 21.0 °F 96% 29.77 in 0.8 mi NW 23.0 mph 27.6 mph 0.00 in Snow Light Snow
9:29 PM 21.2 °F 4.2 °F 19.4 °F 93% 29.47 in 0.8 mi NW 25.3 mph 32.2 mph 0.00 in Snow Light Snow
10:01 PM 21.9 °F 5.1 °F 19.0 °F 89% 29.75 in 0.8 mi NW 25.3 mph 33.4 mph 0.00 in Snow Light Snow
10:34 PM 21.2 °F 4.5 °F 19.4 °F 93% 29.46 in 0.5 mi NW 24.2 mph 35.7 mph 0.00 in Fog , Snow Snow
10:42 PM 21.2 °F 3.9 °F 19.4 °F 93% 29.46 in 0.8 mi NW 26.5 mph 34.5 mph 0.00 in Snow Light Snow
11:01 PM 21.0 °F 3.9 °F 19.0 °F 92% 29.75 in 0.8 mi NW 25.3 mph 31.1 mph 0.00 in Snow Light Snow
11:27 PM 21.2 °F 3.3 °F 19.4 °F 93% 29.45 in 0.5 mi NW 28.8 mph 34.5 mph 0.00 in Fog , Snow Snow